sat.trackr.live / text

‹ back to catalog

STARLINK-6279

NORAD 56411 · 2023-061AP

PAYLOAD ACTIVE UNKNOWN

§ Identity

Operator
Country
US
Launch date
2023-05-04
Launch site
AFETR
Launch vehicle
Mass (kg)
RCS (m²)

Purposes: comms

External: N2YO · Heavens-Above · Gunter

§ Orbital elements

Epoch: 2026-09-20T03:57:21.228192Z

Period
94.27 min
Inclination
43.0007°
Eccentricity
0.0000875
Mean motion
15.27574661 rev/d
Perigee alt
482.5 km
Apogee alt
483.7 km
Semi-major
6,861.2 km
B*
6.9441e-6
RAAN
169.0322°
Arg perigee
247.1223°
Mean anomaly
112.9537°
Rev number
18,661

§ Raw data

STARLINK-62791 56411U 23061AP  26263.16482903 -.00000071  00000+0  69441-5 0  99982 56411  43.0007 169.0322 0000875 247.1223 112.9537 15.27574661186611

JSON: /api/v1/satellites/56411 · /tle

For live sub-satellite position, see the globe view (requires WebGL).

§ Visibility from observer

Set your observer location to see the next 7 days of passes ≥ 10°. The values pass through the URL so the page stays shareable.

No JS? Fill the form by hand. The geolocation button needs JavaScript.